Orbital Elements at Epoch 2459200.5 (2020-Dec-17.0) TDB
Reference: JPL 35 (heliocentric ecliptic J2000)
Element | Value | Uncertainty (1-sigma) | Units |
e | .0632625393056315 | 1.3254e-08 | |
a | 2.325160380443151 | 6.9794e-09 | au |
q | 2.178064830483469 | 3.0551e-08 | au |
i | 5.104138560323321 | 7.2346e-07 | deg |
node | 33.7579056326426 | 1.3513e-05 | deg |
peri | 224.0186444202373 | 2.1013e-05 | deg |
M | 133.0483197712635 | 1.5312e-05 | deg |
tp | 2458721.886778419159 (2019-Aug-26.38677842) | 5.5124e-05 | TDB |
period | 1295.023943671908 3.55 | 5.8309e-06 1.596e-08 | d yr |
n | .2779871381985856 | 1.2517e-09 | deg/d |
Q | 2.472255930402833 | 7.421e-09 | au |
|
| | Orbit Determination Parameters
Additional Information
|